Date,TemperatureHighF,TemperatureAvgF,TemperatureLowF,DewpointHighF,DewpointAvgF,DewpointLowF,HumidityHigh,HumidityAvg,HumidityLow,PressureMaxIn,PressureMinIn,WindSpeedMaxMPH,WindSpeedAvgMPH,GustSpeedMaxMPH,PrecipitationSumIn
2013-1-1,79.6,68.6,61.5,51.6,36.6,21.9,66,35,12,30.24,30.06,0,0,0,0.00
2013-1-2,79.3,68.8,61.0,64.2,50.3,36.1,91,57,22,30.12,30.00,0,0,0,0.00
2013-1-3,81.3,70.1,61.5,66.6,52.6,30.4,98,61,17,30.15,30.06,0,0,0,0.00
2013-1-4,72.3,67.9,63.3,63.8,55.4,47.5,91,66,46,30.27,30.12,0,0,0,0.21
2013-1-5,79.7,69.0,62.1,60.2,48.5,34.3,92,55,20,30.27,30.18,0,0,0,0.00
2013-1-6,83.8,72.4,65.8,70.8,55.7,35.8,98,64,20,30.21,30.06,0,0,0,0.00
2013-1-7,75.2,69.8,66.0,66.5,57.3,42.6,92,68,32,30.21,30.09,0,0,0,0.21
2013-1-8,84.4,72.8,64.8,70.3,54.4,27.9,98,61,13,30.24,30.12,0,0,0,0.08
2013-1-9,86.2,76.8,71.1,68.3,48.8,22.6,89,47,11,30.27,30.18,0,0,0,0.00
2013-1-10,83.8,75.1,69.1,65.4,42.4,21.8,85,38,11,30.30,30.18,0,0,0,0.00
2013-1-11,83.1,73.2,64.6,65.4,45.4,22.5,91,44,11,30.27,30.15,0,0,0,0.00
2013-1-12,83.1,74.4,68.2,59.7,45.0,22.6,74,41,11,30.21,30.09,0,0,0,0.00
2013-1-13,82.8,73.6,67.3,56.9,42.9,22.5,68,37,11,30.15,30.06,0,0,0,0.00
2013-1-14,82.8,71.9,64.8,59.3,39.5,22.0,81,37,11,30.21,30.12,0,0,0,0.00
2013-1-15,83.7,71.9,61.3,63.9,41.0,22.0,91,40,11,30.15,30.06,0,0,0,0.00
2013-1-16,83.7,72.5,63.3,63.2,44.0,21.8,90,45,11,30.15,30.03,0,0,0,0.00
2013-1-17,81.0,68.5,60.3,66.6,43.2,22.5,89,44,21,30.18,30.03,0,0,0,0.00
2013-1-18,67.8,58.6,44.8,51.0,23.3,10.9,73,27,15,30.30,30.15,0,0,0,0.00
2013-1-19,75.9,66.8,59.5,57.3,47.4,32.6,88,55,21,30.27,30.12,0,0,0,0.00
2013-1-20,79.0,69.1,64.8,63.2,52.1,30.3,91,60,20,30.18,30.03,0,0,0,0.00
2013-1-21,78.3,67.5,61.9,57.6,48.9,33.3,79,54,21,30.12,30.03,0,0,0,0.00
2013-1-22,70.9,62.3,57.4,50.4,25.5,8.5,66,28,14,30.27,30.06,0,0,0,0.00
2013-1-23,73.6,61.4,52.5,19.7,12.2,7.0,18,15,11,30.36,30.24,0,0,0,0.00
2013-1-24,75.0,60.6,48.7,36.5,22.7,11.0,60,28,11,30.33,30.24,0,0,0,0.00
2013-1-25,77.9,62.4,50.5,46.9,27.7,12.0,74,32,12,30.33,30.21,0,0,0,0.00
2013-1-26,78.4,63.1,51.1,43.0,27.8,13.7,58,31,12,30.27,30.18,0,0,0,0.00
2013-1-27,79.5,67.1,54.1,46.8,33.3,19.5,75,36,12,30.30,30.21,0,0,0,0.00
2013-1-28,83.5,72.8,64.6,50.9,34.7,21.9,60,29,11,30.33,30.21,0,0,0,0.00
2013-1-29,84.0,73.1,65.7,61.6,44.4,22.5,83,41,11,30.24,30.12,0,0,0,0.00
2013-1-30,81.9,73.3,67.5,57.9,45.5,27.5,63,41,15,30.15,29.97,0,0,0,0.00
2013-1-31,72.9,63.1,48.6,61.9,34.9,4.9,89,44,12,30.24,29.94,0,0,0,0.08
2013-2-1,69.6,55.2,42.3,23.4,13.4,5.6,46,21,12,30.33,30.24,0,0,0,0.00
2013-2-2,76.3,59.3,45.0,28.1,17.5,4.0,43,22,10,30.30,30.15,0,0,0,0.00
2013-2-3,73.2,59.8,47.5,39.2,22.7,10.2,51,27,11,30.24,30.12,0,0,0,0.00
2013-2-4,73.2,58.7,45.9,49.6,27.2,11.0,90,40,11,30.18,30.06,0,0,0,0.00
2013-2-5,79.0,65.2,51.1,39.1,24.9,14.7,41,24,12,30.09,30.03,0,0,0,0.00
2013-2-6,82.9,70.2,58.8,47.4,34.7,21.8,60,31,11,30.12,30.03,0,0,0,0.00
2013-2-7,81.5,72.3,64.4,58.8,42.0,21.9,78,38,12,30.09,29.97,0,0,0,0.00
2013-2-8,84.6,72.7,61.2,65.8,43.5,20.5,81,43,11,30.09,29.91,0,0,0,0.00
2013-2-9,79.7,67.3,56.3,57.0,38.5,20.4,95,45,12,30.18,30.06,0,0,0,0.00
2013-2-10,82.4,71.2,63.3,49.0,36.7,21.8,57,33,12,30.24,30.15,0,0,0,0.00
2013-2-11,82.0,72.4,65.1,51.7,41.2,23.8,60,36,12,30.21,30.09,0,0,0,0.00
2013-2-12,81.3,73.3,67.3,64.0,52.6,38.2,86,53,22,30.15,30.00,0,0,0,0.00
2013-2-13,81.9,75.1,66.2,69.9,58.0,29.3,91,60,25,30.03,29.91,0,0,0,0.00
2013-2-14,72.3,63.9,60.1,66.9,51.9,28.3,92,69,24,30.06,29.91,0,0,0,0.04
2013-2-15,69.3,63.4,60.3,59.0,50.3,38.4,91,65,33,30.09,29.97,0,0,0,0.08
2013-2-16,68.4,62.4,56.5,48.9,33.4,16.7,69,39,15,30.03,29.94,0,0,0,0.00
2013-2-17,68.4,68.4,68.4,18.9,18.9,18.9,15,15,15,30.00,30.00,0,0,0,0.00
2013-2-18,68.4,68.4,68.4,18.9,18.9,18.9,15,15,15,30.00,30.00,0,0,0,0.00
2013-2-19,68.4,68.4,68.4,18.9,18.9,18.9,15,15,15,30.00,30.00,0,0,0,0.00
2013-2-20,68.4,68.4,68.4,18.9,18.9,18.9,15,15,15,30.00,30.00,0,0,0,0.00
2013-2-21,68.4,68.4,68.4,18.9,18.9,18.9,15,15,15,30.00,30.00,0,0,0,0.00
2013-2-22,68.4,68.4,68.4,18.9,18.9,18.9,15,15,15,30.00,30.00,0,0,0,0.00
2013-2-23,68.4,68.4,68.4,18.9,18.9,18.9,15,15,15,30.00,30.00,0,0,0,0.00
2013-2-24,68.4,68.4,68.4,18.9,18.9,18.9,15,15,15,30.00,30.00,0,0,0,0.00
2013-2-25,68.4,68.4,68.4,18.9,18.9,18.9,15,15,15,30.00,30.00,0,0,0,0.00
2013-2-26,68.4,68.4,68.4,18.9,18.9,18.9,15,15,15,30.00,30.00,0,0,0,0.00
2013-2-27,68.4,68.1,64.4,41.9,20.8,16.3,43,17,15,30.00,30.00,0,0,0,0.00
2013-2-28,74.3,64.8,59.4,44.3,31.8,18.4,56,32,13,30.06,29.94,0,0,0,0.00
2013-3-1,65.7,61.1,57.0,38.1,21.1,8.3,39,22,14,30.06,29.94,0,0,0,0.00
2013-3-2,60.6,56.0,52.2,18.9,12.4,7.1,26,18,14,30.09,30.00,0,0,0,0.00
2013-3-3,62.2,51.9,42.3,37.5,18.4,7.0,62,29,14,30.18,30.00,0,0,0,0.08
2013-3-4,69.3,52.8,39.4,28.3,16.6,6.4,56,27,12,30.27,30.15,0,0,0,0.00
2013-3-5,74.7,60.6,46.3,54.8,28.3,16.1,78,35,13,30.21,30.09,0,0,0,0.00
2013-3-6,69.8,62.4,51.6,53.7,28.1,8.3,74,32,12,30.15,30.03,0,0,0,0.00
2013-3-7,68.2,54.5,44.4,27.8,14.6,4.5,41,22,12,30.24,30.12,0,0,0,0.00
2013-3-8,77.4,59.0,43.3,33.3,22.9,12.0,61,30,10,30.24,30.12,0,0,0,0.00
2013-3-9,77.5,63.9,49.1,44.0,25.7,14.2,76,30,10,30.24,30.12,0,0,0,0.00
2013-3-10,79.7,68.1,57.4,37.1,27.5,19.4,41,24,12,30.18,30.06,0,0,0,0.00
2013-3-11,79.2,70.1,62.2,44.7,33.1,19.5,52,29,12,30.12,29.94,0,0,0,0.00
2013-3-12,73.9,68.7,62.4,57.0,48.1,40.1,70,48,36,30.03,29.91,0,0,0,0.00
2013-4-10,85.5,85.1,84.9,34.0,33.8,33.6,16,16,16,29.97,29.97,0,0,0,0.00
2013-4-23,81.5,73.3,70.5,43.3,34.1,30.7,26,24,23,30.12,29.91,0,0,0,0.00
2013-4-24,90.0,74.3,61.7,59.9,38.0,22.1,87,34,10,30.15,30.06,0,0,0,0.00
2013-4-25,88.2,77.3,67.5,56.6,35.6,22.4,65,26,10,30.21,30.09,0,0,0,0.00
2013-4-26,87.4,76.7,64.2,49.9,31.3,21.9,59,22,11,30.24,30.15,0,0,0,0.00
2013-4-27,87.3,76.8,66.7,64.1,35.3,21.8,88,29,11,30.21,30.06,0,0,0,0.00
2013-4-28,87.8,77.0,68.5,46.8,34.6,22.6,45,24,11,30.12,29.97,0,0,0,0.00
2013-4-29,85.3,74.2,68.0,51.1,40.4,28.3,47,31,13,30.03,29.94,0,0,0,0.00
2013-4-30,88.2,75.7,68.5,69.1,51.7,26.5,90,50,13,30.00,29.91,0,0,0,0.13
2013-5-1,79.9,71.7,67.6,67.0,62.8,46.5,92,76,37,30.03,29.85,0,0,0,2.49
2013-5-2,74.8,70.3,68.2,68.5,61.5,48.4,94,76,42,29.97,29.83,0,0,0,0.33
2013-5-3,86.4,74.4,64.4,70.3,48.0,23.7,98,50,11,29.85,29.71,0,0,0,0.00
2013-5-4,81.9,74.7,70.2,56.2,43.7,29.9,61,36,17,29.85,29.71,0,0,0,0.00
2013-5-5,80.8,72.2,62.8,53.7,30.7,14.5,53,25,12,30.00,29.80,0,0,0,0.00
2013-5-6,79.7,70.8,61.3,44.7,32.1,20.5,47,27,12,30.03,29.94,0,0,0,0.00
2013-5-7,78.6,70.8,58.1,47.9,30.6,20.8,65,28,13,30.09,30.00,0,0,0,0.00
2013-5-8,76.8,76.8,76.8,22.2,22.2,22.2,13,13,13,30.03,30.03,0,0,0,0.00
2013-5-9,76.8,76.8,76.8,22.2,22.2,22.2,13,13,13,30.03,30.03,0,0,0,0.00
2013-5-10,76.8,76.8,76.8,22.2,22.2,22.2,13,13,13,30.03,30.03,0,0,0,0.00
2013-5-11,76.8,76.8,76.8,22.2,22.2,22.2,13,13,13,30.03,30.03,0,0,0,0.00
2013-5-12,76.8,76.8,76.8,22.2,22.2,22.2,13,13,13,30.03,30.03,0,0,0,0.00
2013-5-13,76.8,76.8,76.8,22.2,22.2,22.2,13,13,13,30.03,30.03,0,0,0,0.00
2013-5-14,76.8,76.8,76.8,22.2,22.2,22.2,13,13,13,30.03,30.03,0,0,0,0.00
2013-5-15,76.8,76.7,73.2,32.1,22.3,22.2,22,13,13,30.12,30.03,0,0,0,0.00
2013-5-16,88.0,77.4,67.5,43.9,30.8,21.6,41,21,10,30.12,30.00,0,0,0,0.00
2013-5-17,90.9,78.9,67.1,54.0,34.0,22.9,59,23,10,30.09,30.03,0,0,0,0.00
2013-5-18,91.4,80.7,70.9,66.9,39.9,22.6,82,32,10,30.12,30.03,0,0,0,0.00
2013-5-19,93.0,79.4,72.3,66.7,45.3,22.4,80,37,9,30.12,30.00,0,0,0,0.08
2013-5-20,92.3,76.9,70.0,69.5,52.7,24.4,87,52,9,30.09,29.97,0,0,0,0.04
2013-5-21,92.3,80.8,68.5,66.9,44.7,24.6,91,40,9,30.03,29.91,0,0,0,0.04
2013-5-22,89.6,89.6,89.6,30.2,30.2,30.2,12,12,12,29.91,29.91,0,0,0,0.00
2013-5-23,89.6,89.6,89.6,30.2,30.2,30.2,12,12,12,29.91,29.91,0,0,0,0.00
2013-5-24,89.6,89.6,89.6,30.2,30.2,30.2,12,12,12,29.91,29.91,0,0,0,0.00
2013-5-25,89.6,89.6,89.6,30.2,30.2,30.2,12,12,12,29.91,29.91,0,0,0,0.00
2013-5-26,89.6,89.6,89.6,30.2,30.2,30.2,12,12,12,29.91,29.91,0,0,0,0.00
2013-6-12,89.6,75.8,73.8,68.8,62.6,30.2,84,71,12,30.06,29.91,0,0,0,0.00
2013-6-13,93.2,79.7,70.3,76.0,54.2,24.5,98,52,9,30.06,29.94,0,0,0,0.04
2013-6-14,90.3,81.7,74.5,75.1,50.2,29.1,89,42,12,29.97,29.88,0,0,0,0.00
2013-6-15,92.1,81.9,74.5,75.7,52.0,30.2,88,41,12,30.06,29.94,0,0,0,0.16
2013-6-16,95.7,82.5,75.4,73.5,53.3,25.4,88,43,9,30.09,30.03,0,0,0,0.17
2013-6-17,96.1,84.4,74.8,77.6,48.5,24.4,93,40,9,30.09,30.00,0,0,0,0.17
2013-6-18,94.6,84.9,75.6,70.0,47.7,25.3,80,36,9,30.09,29.97,0,0,0,0.00
2013-6-19,93.7,82.0,74.8,74.6,51.3,24.9,89,43,9,30.06,29.97,0,0,0,0.37
2013-6-20,91.8,79.9,72.3,68.6,51.8,24.8,70,41,9,30.12,30.03,0,0,0,0.42
2013-6-21,92.5,79.1,72.3,72.2,54.4,24.6,84,47,10,30.12,30.03,0,0,0,1.12
2013-6-22,93.6,83.4,74.8,71.1,45.1,24.0,83,35,9,30.12,30.03,0,0,0,0.00
2013-6-23,94.5,80.9,74.3,69.7,50.6,24.6,82,39,9,30.15,30.06,0,0,0,0.00
2013-6-24,93.4,83.1,76.4,62.2,45.4,24.4,61,32,9,30.18,30.06,0,0,0,0.00
2013-6-25,93.7,85.3,75.7,62.7,40.1,24.6,61,26,9,30.15,30.06,0,0,0,0.00
2013-6-26,91.9,91.9,91.9,25.0,25.0,25.0,9,9,9,30.06,30.06,0,0,0,0.00